Presure
229 226 240 263 261 257 243 237 233 229 231 255 251 250 249 241 245 256 257 250 247 236 237 232 221 209 200 201 198 196 199 200 206 297 272 280 278 276 275 259 255 250 247 242
262 265 263 257 253 257 257 262 259 253 250 253 255 259 257 255 247 244 232 216 203 206 208 215 215 234 236 239 231 231 266 287 284 277 280 273 268 254 250 248 245 238 231 228
268 292 280 266 283 283 278 274 262 250 239 228 228 216 216 214 207 146 208 223 255 255 220 214 214 211 230 299 294 278 273 279 279 273 259 252 248 244 242 234 227 228 230 231
248 249 251 251 246 243 230 216 210 210 209 205 195 197 204 208 221 228 241 241 207 212 223 347 345 313 283 275 274 278 277 272 256 250 243 241 240 229 225 223 230 233 245 275
234 228 217 219 218 213 208 206 225 229 230 229 226 231 238 236 278 256 227 210 207 306 301 283 271 269 272 277 269 259 253 249 240 239 240 224 219 222 229 237 246 281 280 278
216 213 216 240 238 216 225 239 236 206 245 249 257 259 260 309 270 217 262 330 305 264 269 259 259 271 256 248 249 244 234 236 236 223 219 221 227 238 253 275 274 293 323 355
226 220 240 222 231 209 239 230 246 231 216 211 267 345 310 221 307 297 287 273 258 266 261 274 248 250 244 241 231 229 236 222 218 216 216 233 260 265 298 310 254 290 348 331
219 240 202 246 243 213 237 236 242 244 237 272 340 302 276 284 278 268 259 248 247 259 235 241 238 238 229 227 230 222 216 220 214 220 246 256 265 256 264 355 340 326 359 395
221 218 236 246 232 236 243 245 227 301 309 339 308 288 260 268 264 258 264 253 232 238 237 233 224 224 225 220 215 213 220 220 241 257 283 290 286 346 335 322 334 398 363 333
214 208 236 237 228 228 238 231 300 341 344 316 307 265 253 262 258 258 250 230 227 230 223 221 220 223 213 212 215 223 248 261 272 275 346 352 336 323 322 363 387 351 311 323
226 234 224 238 227 235 297 328 363 342 322 318 283 260 263 258 253 236 223 230 228 216 216 218 214 210 211 216 231 251 252 275 323 349 346 320 318 331 365 380 311 304 309 310
239 246 227 232 257 241 332 314 296 339 303 291 262 263 275 252 231 228 227 220 215 213 215 205 207 212 222 245 270 267 259 357 354 331 318 322 349 350 383 325 299 308 297 295
231 228 229 245 273 318 302 308 296 313 300 288 262 256 245 230 224 228 218 213 212 212 202 203 206 223 242 271 248 261 313 344 318 319 330 368 364 375 329 299 307 290 282 281
236 234 234 365 348 317 290 302 327 296 292 262 253 249 228 228 219 216 211 211 207 201 202 205 222 261 278 241 254 359 341 317 328 337 352 355 346 327 298 298 291 279 274 276
233 261 312 357 435 418 316 309 296 285 265 256 258 229 228 216 213 211 211 204 199 202 206 218 262 261 229 248 307 359 317 333 347 333 335 329 319 297 290 264 281 270 273 275
257 303 409 399 387 375 324 279 260 275 260 256 227 224 221 212 212 211 203 198 200 207 204 249 232 229 242 257 322 314 329 340 330 333 318 308 297 277 268 260 264 262 265 269
252 389 388 378 360 301 275 268 264 257 239 235 227 224 211 211 208 201 196 199 201 200 238 245 229 224 268 297 338 315 347 348 335 311 301 290 277 264 256 256 263 261 264 265
361 396 368 343 282 266 259 271 274 249 235 229 224 216 210 207 207 196 196 199 203 227 234 225 225 207 257 300 357 320 350 331 306 293 285 273 264 251 249 262 259 267 263 267
413 370 334 269 262 264 265 271 248 236 227 222 215 215 207 209 194 193 197 202 211 226 228 222 230 219 256 294 371 327 309 314 297 288 274 267 255 255 250 256 256 260 257 260
409 338 285 270 261 271 261 250 239 228 219 220 219 206 206 199 194 191 198 202 256 248 223 223 215 240 250 283 327 325 295 307 286 279 270 250 247 253 249 251 254 251 255 255
383 327 278 272 261 281 273 236 232 228 223 211 208 204 205 197 191 198 196 222 241 227 134 234 228 235 239 262 290 340 303 303 281 275 260 247 248 250 243 243 244 251 256 261
328 308 270 266 271 269 242 230 226 224 215 215 203 203 198 189 195 197 203 248 232 221 210 215 228 234 225 241 263 320 322 247 273 273 262 241 240 254 245 240 241 243 253 262
320 295 274 266 272 252 235 229 223 220 211 209 204 203 190 194 195 201 214 245 214 220 201 218 204 236 222 234 241 265 315 336 220 240 260 255 251 254 247 244 242 243 246 257
311 290 276 269 274 250 234 222 220 215 212 203 201 198 189 191 199 207 248 241 210 219 230 220 199 200 215 218 227 248 266 314 379 239 214 234 243 253 254 251 233 258 238 259
304 292 283 274 266 244 234 221 221 212 204 206 202 189 194 195 195 213 247 229 212 221 204 221 220 207 208 219 214 226 240 265 295 330 343 237 223 261 246 254 261 247 214 247
300 295 282 262 257 239 229 221 214 213 204 203 200 190 191 194 200 253 244 221 212 210 203 202 218 226 196 205 219 214 231 228 254 273 299 327 349 251 232 278 259 264 235 184
Wind_Speed
74 78 77 68 65 62 64 66 67 69 73 71 67 62 63 65 76 68 64 61 56 57 60 59 62 60 60 62 62 63 66 67 66 51 67 61 57 60 59 59 62 63 63 63
67 64 61 60 62 62 62 60 56 56 59 61 61 56 59 56 59 61 58 53 48 54 56 61 67 64 65 65 65 67 58 51 56 57 51 56 55 56 59 60 60 61 63 66
49 45 41 43 46 45 47 47 43 42 42 44 45 43 55 54 54 44 60 68 64 58 56 58 62 63 60 47 36 44 54 50 47 49 49 52 56 57 57 59 61 65 68 70
44 40 42 39 38 37 41 45 46 45 46 49 58 53 57 59 64 61 63 66 57 57 61 29 23 18 25 33 38 39 40 42 43 49 51 54 54 57 59 64 68 71 78 81
39 46 50 48 47 48 50 51 48 48 48 50 54 55 59 57 60 61 57 55 59 19 8 14 19 21 26 28 31 33 38 41 45 50 52 52 55 60 65 71 77 77 77 77
52 50 49 47 46 47 46 48 48 49 49 52 52 53 54 41 43 54 40 21 7 22 15 21 28 23 21 27 31 34 39 45 46 46 50 56 63 70 75 74 73 75 77 68
48 43 46 45 46 54 48 48 46 47 51 51 51 27 20 54 9 10 8 8 13 12 20 17 13 22 24 26 32 38 42 41 45 50 55 65 70 69 70 77 72 64 59 62
49 48 50 45 46 48 48 45 48 47 46 48 12 13 19 7 9 7 6 10 10 14 12 14 17 21 25 31 35 36 40 45 49 55 65 64 62 66 63 55 54 56 54 33
45 50 52 57 45 50 56 48 46 44 38 2 5 3 15 3 5 8 7 5 11 9 12 17 20 25 30 32 35 40 46 49 59 57 62 65 64 51 49 51 53 33 23 26
50 48 59 62 53 51 51 43 44 25 4 7 9 13 17 10 9 1 6 4 11 12 15 21 25 29 31 35 41 47 54 53 58 60 49 47 44 46 48 43 33 26 24 36
53 55 59 61 53 57 48 34 15 7 15 15 18 10 9 5 3 8 7 5 8 14 18 23 27 31 35 40 48 51 47 60 49 44 40 42 43 44 36 26 18 23 33 41
64 63 58 61 65 58 16 20 20 13 6 22 10 11 11 9 9 5 3 5 11 15 20 24 29 35 42 49 52 52 56 46 39 38 39 40 38 33 25 31 21 32 38 40
62 50 56 63 48 26 24 22 17 15 14 27 12 15 14 13 6 3 2 8 13 17 22 25 30 41 46 51 46 61 53 37 39 38 37 33 28 30 32 28 33 34 42 44
67 61 58 37 23 18 27 16 8 17 23 18 16 19 16 12 5 1 4 10 14 19 23 27 39 44 44 46 62 51 37 41 39 36 31 27 34 40 36 38 42 42 42 46
65 69 48 31 11 23 27 12 19 23 23 21 21 21 16 9 6 2 5 10 15 20 25 35 37 40 38 58 56 40 43 40 37 31 29 36 44 43 44 34 47 46 48 53
71 47 24 3 8 21 22 27 17 24 24 23 25 19 18 11 7 2 7 11 15 22 27 31 33 38 55 52 56 42 43 38 33 32 40 44 49 43 43 39 41 45 51 52
38 23 1 11 19 33 28 29 33 30 34 29 25 21 16 11 4 6 6 12 17 21 33 31 36 40 52 59 53 44 42 36 37 42 46 47 45 43 36 36 40 43 47 52
27 2 20 30 33 30 23 27 32 35 33 27 25 19 16 8 6 3 7 13 20 28 27 30 38 32 50 62 48 46 40 37 40 46 46 43 41 38 36 41 41 42 48 47
8 24 34 22 27 24 26 32 42 37 31 30 21 21 12 10 5 2 7 15 21 22 26 32 44 46 52 63 45 47 42 38 39 44 43 41 39 37 40 42 41 43 43 46
10 38 39 36 27 30 31 42 39 35 31 29 23 17 13 10 4 3 9 14 14 17 25 36 32 42 52 65 60 50 43 38 42 41 39 42 41 40 40 39 39 36 38 43
26 47 40 36 29 29 36 46 42 39 34 25 23 17 14 10 3 4 10 16 17 21 13 35 37 41 51 66 65 50 43 39 40 41 41 42 41 40 38 38 33 31 32 37
45 50 38 37 37 39 50 42 39 37 31 29 22 18 14 7 4 6 10 10 16 21 24 30 35 40 50 59 68 62 44 44 40 40 39 44 43 37 35 35 31 28 27 31
54 52 50 43 42 51 51 45 40 36 31 28 22 19 12 8 5 6 9 13 13 22 19 29 36 39 51 58 60 68 63 43 40 45 39 37 39 35 33 30 27 27 27 25
56 55 55 46 47 54 52 45 41 37 32 27 23 19 12 8 5 4 7 15 12 21 23 32 30 39 49 57 61 63 68 65 52 39 40 43 43 35 33 31 33 30 32 24
58 59 58 48 51 54 55 46 42 37 33 30 26 19 14 8 5 4 11 12 15 19 25 28 31 32 46 51 56 60 66 67 70 67 53 38 40 35 38 34 31 30 33 29
53 61 57 51 57 56 54 47 42 40 35 31 27 20 15 10 4 12 14 10 14 21 24 30 31 32 35 47 49 57 62 64 67 67 67 62 52 39 37 34 34 33 39 25
Wind_Direction
281 284 288 291 291 289 288 289 289 291 290 294 295 296 294 292 291 293 292 290 291 289 290 292 292 291 292 291 291 289 288 290 292 294 294 295 292 291 292 288 286 288 288 287
291 292 289 287 289 289 289 290 291 289 289 291 292 295 293 291 292 297 291 293 301 298 299 294 289 293 292 292 289 288 292 292 293 296 295 293 295 291 289 290 291 290 289 288
293 296 293 293 295 295 293 293 294 296 297 298 296 294 289 294 295 304 306 299 297 296 291 292 291 291 291 290 299 289 291 297 295 296 294 294 291 292 295 295 293 292 290 288
290 293 294 295 297 297 298 302 301 298 298 297 299 298 296 296 294 296 296 298 304 302 300 295 309 328 310 290 292 298 297 298 295 297 294 295 298 300 298 294 293 293 293 295
293 296 300 302 301 300 297 296 298 297 296 292 291 293 293 292 296 297 299 299 299 321 9 331 314 299 294 308 306 299 294 298 295 297 301 302 298 297 296 296 296 300 299 296
295 295 298 303 303 297 301 305 305 301 304 302 302 301 299 300 300 302 302 308 347 309 300 291 302 316 319 297 299 299 296 301 304 306 301 300 301 300 299 302 301 304 305 306
300 303 304 302 304 297 309 307 302 295 295 301 304 308 317 302 1 21 31 352 299 317 306 317 317 316 303 305 300 302 308 307 306 304 302 304 304 303 310 308 302 306 312 312
306 309 297 312 309 290 309 307 305 303 301 308 329 315 293 44 43 12 323 320 316 338 313 287 309 317 304 305 310 311 310 310 305 304 305 303 303 302 304 315 315 316 322 348
309 306 317 319 312 312 313 314 299 306 306 339 278 39 290 296 301 294 353 355 320 323 288 323 314 312 314 319 317 314 312 310 308 309 319 321 318 317 319 320 323 341 15 4
308 307 319 317 316 311 311 305 310 306 233 221 170 247 271 260 327 32 55 326 288 311 316 321 318 324 324 321 318 315 317 321 323 326 319 322 324 325 326 335 355 46 1 19
315 318 319 316 315 313 311 310 296 269 180 170 172 238 236 268 155 103 270 294 323 311 322 325 331 328 325 319 318 321 324 336 330 328 331 331 331 332 347 29 43 22 35 28
314 317 321 317 314 309 302 309 320 173 153 164 205 189 203 151 151 196 253 324 308 326 331 336 333 329 323 325 334 339 338 337 340 341 340 338 344 355 46 74 41 50 45 39
313 323 320 315 312 305 298 305 316 169 169 164 150 154 140 149 195 178 337 314 334 338 340 335 334 328 332 340 338 343 337 350 351 349 347 1 16 67 82 70 65 58 53 49
317 321 319 317 301 249 268 287 212 155 154 151 156 156 152 160 158 142 318 345 350 342 335 337 332 347 346 348 348 352 360 359 358 358 15 40 70 78 77 71 69 62 60 57
321 319 321 315 281 220 222 255 147 142 153 141 139 153 155 150 159 243 353 3 345 340 343 338 354 356 347 351 0 4 6 5 7 26 48 71 82 80 75 71 72 68 65 61
320 323 323 317 156 168 171 139 163 155 144 141 161 162 153 157 181 56 17 350 343 345 346 357 353 358 358 351 4 13 12 16 35 57 77 82 85 81 80 74 74 73 70 69
312 329 357 126 124 134 138 155 152 153 152 155 162 156 153 176 145 65 355 346 350 352 342 360 6 7 16 13 12 23 23 39 66 77 79 86 83 81 79 74 77 78 78 77
330 358 121 127 137 149 161 166 154 147 151 156 159 155 163 165 127 60 356 348 359 347 1 7 14 358 14 19 22 32 38 65 75 80 87 85 84 80 75 75 71 79 78 80
313 139 138 159 163 160 161 159 151 149 156 161 163 158 168 152 127 27 356 2 355 0 19 18 16 17 22 25 30 39 51 73 78 83 85 85 82 80 73 75 77 81 85 86
174 151 161 166 175 179 157 151 155 158 161 167 156 169 159 137 123 352 13 2 39 26 27 27 19 22 30 32 32 45 55 73 78 82 86 79 74 77 74 76 80 84 91 96
168 162 178 169 171 176 159 160 162 163 163 160 165 165 150 142 133 28 21 360 25 38 340 23 27 27 37 42 36 45 58 75 79 78 79 76 73 78 77 76 77 83 91 97
166 169 189 174 171 163 161 166 164 164 165 162 167 160 153 161 118 40 16 79 50 47 50 49 39 34 44 46 45 46 57 63 72 80 78 75 73 75 75 77 76 78 84 93
170 174 183 184 170 163 167 166 165 168 165 166 165 161 166 155 111 46 12 68 52 52 50 43 53 40 50 52 51 50 52 60 66 69 75 76 76 75 75 74 77 78 80 93
175 180 187 181 170 165 168 168 168 172 167 166 166 160 172 161 111 36 79 87 63 58 36 39 66 60 53 57 57 55 56 58 61 69 70 73 74 74 75 79 83 78 83 86
180 182 185 180 169 169 168 172 171 169 169 170 166 169 163 152 121 34 118 98 74 65 73 50 39 55 58 56 61 59 58 60 61 63 67 73 74 76 79 79 81 86 93 94
184 181 185 169 169 169 170 172 173 171 171 174 167 170 166 158 138 144 124 114 83 82 79 68 43 52 71 64 59 64 58 62 61 62 62 65 65 74 80 79 84 82 107 83